TimeCDT,TemperatureF,Dew PointF,Humidity,Sea Level PressureIn,VisibilityMPH,Wind Direction,Wind SpeedMPH,Gust SpeedMPH,PrecipitationIn,Events,Conditions,WindDirDegrees,DateUTC
12:15 AM,50.0,46.4,87,30.04,10.0,WNW,4.6,-,N/A,,Clear,290,2013-10-06 05:15:00
12:35 AM,50.0,46.4,87,30.04,10.0,West,6.9,-,N/A,,Clear,270,2013-10-06 05:35:00
12:55 AM,50.0,46.4,87,30.03,10.0,WNW,6.9,-,N/A,,Clear,290,2013-10-06 05:55:00
1:15 AM,50.0,46.4,87,30.04,10.0,WNW,5.8,-,N/A,,Clear,300,2013-10-06 06:15:00
1:35 AM,50.0,46.4,87,30.04,10.0,NW,4.6,-,N/A,,Clear,310,2013-10-06 06:35:00
1:55 AM,50.0,46.4,87,30.04,10.0,West,4.6,-,N/A,,Clear,280,2013-10-06 06:55:00
2:15 AM,50.0,46.4,87,30.04,10.0,WSW,4.6,-,N/A,,Clear,250,2013-10-06 07:15:00
2:35 AM,48.2,46.4,93,30.03,10.0,WNW,3.5,-,N/A,,Clear,290,2013-10-06 07:35:00
2:55 AM,48.2,46.4,93,30.02,10.0,West,4.6,-,N/A,,Clear,280,2013-10-06 07:55:00
3:15 AM,48.2,46.4,93,30.02,10.0,West,5.8,-,N/A,,Clear,280,2013-10-06 08:15:00
3:35 AM,48.2,46.4,93,30.02,10.0,West,3.5,-,N/A,,Clear,260,2013-10-06 08:35:00
3:55 AM,48.2,46.4,93,30.02,10.0,West,3.5,-,N/A,,Clear,270,2013-10-06 08:55:00
4:15 AM,48.2,46.4,93,30.02,10.0,West,3.5,-,N/A,,Clear,270,2013-10-06 09:15:00
4:35 AM,48.2,46.4,93,30.02,10.0,West,3.5,-,N/A,,Clear,280,2013-10-06 09:35:00
4:55 AM,48.2,46.4,93,30.02,10.0,West,3.5,-,N/A,,Clear,280,2013-10-06 09:55:00
5:15 AM,46.4,46.4,100,30.03,7.0,Calm,Calm,-,N/A,,Clear,0,2013-10-06 10:15:00
5:35 AM,46.4,44.6,93,30.02,7.0,Calm,Calm,-,N/A,,Clear,0,2013-10-06 10:35:00
5:55 AM,46.4,44.6,93,30.03,5.0,Calm,Calm,-,N/A,,Clear,0,2013-10-06 10:55:00
6:15 AM,46.4,44.6,93,30.03,7.0,SW,3.5,-,N/A,,Clear,230,2013-10-06 11:15:00
6:35 AM,46.4,44.6,93,30.04,1.0,Calm,Calm,-,N/A,,Unknown,0,2013-10-06 11:35:00
6:55 AM,44.6,44.6,100,30.04,0.5,SW,3.5,-,N/A,,Unknown,220,2013-10-06 11:55:00
7:15 AM,44.6,42.8,93,30.04,0.5,Calm,Calm,-,N/A,,Mostly Cloudy,0,2013-10-06 12:15:00
7:35 AM,44.6,42.8,93,30.04,0.5,WSW,3.5,-,N/A,,Mostly Cloudy,250,2013-10-06 12:35:00
7:55 AM,44.6,42.8,93,30.04,0.5,WSW,3.5,-,N/A,,Unknown,240,2013-10-06 12:55:00
8:15 AM,46.4,44.6,93,30.04,2.0,WSW,4.6,-,N/A,,Clear,250,2013-10-06 13:15:00
8:35 AM,50.0,48.2,94,30.05,10.0,West,4.6,-,N/A,,Clear,280,2013-10-06 13:35:00
8:55 AM,51.8,50.0,94,30.05,10.0,WNW,4.6,-,N/A,,Clear,290,2013-10-06 13:55:00
9:15 AM,53.6,51.8,94,30.05,10.0,WNW,5.8,-,N/A,,Clear,300,2013-10-06 14:15:00
9:35 AM,55.4,51.8,88,30.06,10.0,WNW,9.2,-,N/A,,Clear,300,2013-10-06 14:35:00
9:55 AM,57.2,46.4,67,30.07,10.0,WNW,8.1,-,N/A,,Clear,300,2013-10-06 14:55:00
10:15 AM,59.0,44.6,59,30.07,10.0,North,8.1,-,N/A,,Clear,350,2013-10-06 15:15:00
10:35 AM,60.8,42.8,52,30.07,10.0,North,6.9,-,N/A,,Clear,360,2013-10-06 15:35:00
10:55 AM,60.8,44.6,55,30.08,10.0,NNW,5.8,-,N/A,,Clear,340,2013-10-06 15:55:00
11:15 AM,62.6,44.6,52,30.08,10.0,NW,10.4,16.1,N/A,,Clear,320,2013-10-06 16:15:00
11:35 AM,62.6,42.8,48,30.07,10.0,NNW,11.5,-,N/A,,Clear,340,2013-10-06 16:35:00
11:55 AM,64.4,42.8,45,30.07,10.0,NNW,9.2,-,N/A,,Clear,340,2013-10-06 16:55:00
12:15 PM,64.4,41.0,42,30.07,10.0,NNW,9.2,16.1,N/A,,Clear,330,2013-10-06 17:15:00
12:35 PM,66.2,41.0,40,30.06,10.0,WNW,6.9,-,N/A,,Clear,300,2013-10-06 17:35:00
12:55 PM,68.0,41.0,37,30.04,10.0,West,9.2,-,N/A,,Clear,280,2013-10-06 17:55:00
1:15 PM,69.8,41.0,35,30.04,10.0,WNW,6.9,-,N/A,,Clear,300,2013-10-06 18:15:00
1:35 PM,69.8,41.0,35,30.03,10.0,NW,13.8,18.4,N/A,,Clear,310,2013-10-06 18:35:00
1:55 PM,69.8,41.0,35,30.02,10.0,NW,12.7,18.4,N/A,,Clear,310,2013-10-06 18:55:00
2:15 PM,71.6,41.0,33,30.01,10.0,NW,9.2,20.7,N/A,,Clear,320,2013-10-06 19:15:00
2:35 PM,71.6,41.0,33,30.01,10.0,WNW,12.7,19.6,N/A,,Clear,300,2013-10-06 19:35:00
2:55 PM,71.6,39.2,31,30.01,10.0,NW,17.3,21.9,N/A,,Clear,320,2013-10-06 19:55:00
3:15 PM,71.6,41.0,33,30.00,10.0,NW,17.3,21.9,N/A,,Clear,310,2013-10-06 20:15:00
3:35 PM,71.6,41.0,33,30.00,10.0,NW,12.7,20.7,N/A,,Clear,310,2013-10-06 20:35:00
3:55 PM,71.6,39.2,31,30.00,10.0,NNW,16.1,21.9,N/A,,Clear,330,2013-10-06 20:55:00
4:15 PM,71.6,41.0,33,30.00,10.0,NW,10.4,19.6,N/A,,Clear,310,2013-10-06 21:15:00
4:35 PM,71.6,41.0,33,30.00,10.0,WNW,10.4,18.4,N/A,,Clear,300,2013-10-06 21:35:00
4:55 PM,71.6,41.0,33,29.99,10.0,NW,15.0,-,N/A,,Clear,310,2013-10-06 21:55:00
5:15 PM,71.6,41.0,33,29.99,10.0,NW,10.4,-,N/A,,Clear,320,2013-10-06 22:15:00
5:35 PM,71.6,41.0,33,29.99,10.0,NW,9.2,-,N/A,,Clear,320,2013-10-06 22:35:00
5:55 PM,69.8,41.0,35,29.99,10.0,NW,8.1,-,N/A,,Clear,310,2013-10-06 22:55:00
6:15 PM,69.8,41.0,35,29.99,10.0,WNW,5.8,-,N/A,,Clear,300,2013-10-06 23:15:00
6:35 PM,68.0,42.8,40,30.00,10.0,WNW,3.5,-,N/A,,Clear,300,2013-10-06 23:35:00
6:55 PM,66.2,42.8,43,30.01,10.0,WNW,4.6,-,N/A,,Clear,300,2013-10-06 23:55:00
7:15 PM,62.6,42.8,48,30.01,10.0,West,4.6,-,N/A,,Clear,270,2013-10-07 00:15:00
7:35 PM,60.8,44.6,55,30.02,10.0,West,3.5,-,N/A,,Clear,280,2013-10-07 00:35:00
7:55 PM,59.0,46.4,63,30.02,10.0,NW,3.5,-,N/A,,Clear,310,2013-10-07 00:55:00
8:15 PM,57.2,44.6,63,30.03,10.0,NW,4.6,-,N/A,,Clear,320,2013-10-07 01:15:00
8:35 PM,57.2,44.6,63,30.04,10.0,NNW,4.6,-,N/A,,Clear,330,2013-10-07 01:35:00
8:55 PM,57.2,44.6,63,30.04,10.0,Calm,Calm,-,N/A,,Clear,0,2013-10-07 01:55:00
9:15 PM,55.4,46.4,72,30.06,10.0,NNW,5.8,-,N/A,,Clear,330,2013-10-07 02:15:00
9:35 PM,55.4,46.4,72,30.06,10.0,NNW,5.8,-,N/A,,Clear,340,2013-10-07 02:35:00
9:55 PM,55.4,44.6,67,30.06,10.0,NNW,4.6,-,N/A,,Clear,340,2013-10-07 02:55:00
10:15 PM,55.4,44.6,67,30.07,10.0,Calm,Calm,-,N/A,,Clear,0,2013-10-07 03:15:00
10:35 PM,53.6,44.6,72,30.06,10.0,Calm,Calm,-,N/A,,Clear,0,2013-10-07 03:35:00
10:40 PM,55.4,46.4,72,30.06,10.0,Calm,Calm,-,N/A,,Clear,0,2013-10-07 03:40:00
11:18 PM,53.6,46.4,77,30.06,10.0,Calm,Calm,-,N/A,,Clear,0,2013-10-07 04:18:00
11:35 PM,51.8,46.4,82,30.06,10.0,Calm,Calm,-,N/A,,Clear,0,2013-10-07 04:35:00
11:55 PM,50.0,46.4,87,30.05,10.0,Calm,Calm,-,N/A,,Clear,0,2013-10-07 04:55:00